FBD763 UMMS-UWLL

Flight info

Callsign FBD763
Flight time N/A
Altitude 39000
Route SORFO2F SORFO L979 ASKIL L736 LODKU M56 ABAGI T794 ULPON ULPON1E
Aircraft B763/H-SDE3FGHIM3RWXY/LB1

Departure

Time N/A
Airport Minsk National Airport (UMMS)

Arrival

Time 2026-04-30 18:39
Airport Ulyanovsk Baratayevka Airport (UWLL)
Time Latitude Longitude Altitude Speed Heading
2026-04-30 17:39 54.18181 37.76911 39182 ft 476 kts 96°
2026-04-30 17:42 54.13526 38.32446 39179 ft 477 kts 97°
2026-04-30 17:43 54.11092 38.60285 39176 ft 476 kts 97°
2026-04-30 17:44 54.08084 38.93673 39182 ft 477 kts 98°
2026-04-30 17:47 54.03399 39.43676 39187 ft 478 kts 98°
2026-04-30 17:48 53.99605 39.82550 39177 ft 479 kts 99°
2026-04-30 17:50 53.95106 40.26985 39166 ft 478 kts 99°
2026-04-30 17:52 53.91621 40.60285 39161 ft 481 kts 99°
2026-04-30 17:54 53.86222 41.10112 39152 ft 479 kts 100°
2026-04-30 17:56 53.81243 41.54362 39140 ft 481 kts 101°
2026-04-30 17:58 53.77391 41.87563 39137 ft 480 kts 101°
2026-04-30 18:00 53.72155 42.31402 39124 ft 482 kts 102°
2026-04-30 18:01 53.68774 42.58960 39125 ft 481 kts 102°
2026-04-30 18:02 53.67714 42.75693 39139 ft 482 kts 84°
2026-04-30 18:02 53.68858 42.92591 39123 ft 488 kts 85°
2026-04-30 18:04 53.70505 43.26345 39118 ft 471 kts 86°
2026-04-30 18:06 53.72439 43.70723 39113 ft 476 kts 87°
2026-04-30 18:08 53.73999 44.09654 39075 ft 475 kts 87°
2026-04-30 18:09 53.74830 44.31848 38491 ft 484 kts 87°
2026-04-30 18:10 53.75455 44.54272 36333 ft 475 kts 89°
2026-04-30 18:11 53.75866 44.76617 33889 ft 477 kts 90°
2026-04-30 18:11 53.76149 44.93358 32206 ft 479 kts 90°
2026-04-30 18:12 53.76408 45.10135 30718 ft 476 kts 91°
2026-04-30 18:13 53.76570 45.21247 29564 ft 475 kts 91°
2026-04-30 18:13 53.76790 45.35936 27994 ft 463 kts 93°
2026-04-30 18:14 53.76961 45.48403 26531 ft 456 kts 94°
2026-04-30 18:15 53.77157 45.64248 24433 ft 446 kts 95°
2026-04-30 18:15 53.77330 45.79685 22670 ft 421 kts 95°
2026-04-30 18:16 53.77428 45.89366 21575 ft 409 kts 95°
2026-04-30 18:16 53.77517 45.98758 20230 ft 395 kts 95°
2026-04-30 18:17 53.77555 46.03336 19031 ft 389 kts 94°
2026-04-30 18:17 53.77593 46.07830 17898 ft 382 kts 94°
2026-04-30 18:17 53.77663 46.16594 16471 ft 370 kts 94°
2026-04-30 18:18 53.77692 46.20988 15995 ft 377 kts 93°
2026-04-30 18:18 53.77718 46.25396 15539 ft 372 kts 93°
2026-04-30 18:18 53.77754 46.29679 15100 ft 368 kts 93°
2026-04-30 18:18 53.77776 46.34003 14653 ft 366 kts 93°
2026-04-30 18:19 53.77803 46.38270 14218 ft 365 kts 93°
2026-04-30 18:19 53.77828 46.42572 13783 ft 364 kts 93°
2026-04-30 18:19 53.77850 46.46747 13570 ft 352 kts 92°
2026-04-30 18:19 53.77872 46.50777 13557 ft 333 kts 93°
2026-04-30 18:20 53.77888 46.54620 13461 ft 319 kts 93°
2026-04-30 18:20 53.77902 46.58344 13023 ft 317 kts 93°
2026-04-30 18:20 53.77915 46.62032 12642 ft 314 kts 93°
2026-04-30 18:20 53.77927 46.65716 12241 ft 311 kts 93°
2026-04-30 18:21 53.77938 46.69176 11841 ft 310 kts 93°
2026-04-30 18:21 53.77949 46.72810 11423 ft 308 kts 93°
2026-04-30 18:21 53.77960 46.76420 11056 ft 304 kts 92°
2026-04-30 18:21 53.77969 46.79964 10656 ft 301 kts 92°
2026-04-30 18:22 53.77977 46.83485 10248 ft 299 kts 92°
2026-04-30 18:22 53.77990 46.90415 9449 ft 295 kts 92°
2026-04-30 18:22 53.77996 46.93859 9085 ft 291 kts 92°
2026-04-30 18:23 53.77998 46.97264 8590 ft 291 kts 92°
2026-04-30 18:23 53.78001 47.00633 8265 ft 284 kts 91°
2026-04-30 18:23 53.78003 47.03954 7884 ft 279 kts 91°
2026-04-30 18:23 53.78007 47.07149 7871 ft 260 kts 92°
2026-04-30 18:24 53.78004 47.13059 7933 ft 260 kts 91°
2026-04-30 18:24 53.78003 47.16091 7914 ft 255 kts 91°
2026-04-30 18:24 53.78145 47.19082 7906 ft 255 kts 75°
2026-04-30 18:25 53.79018 47.21667 7908 ft 261 kts 52°
2026-04-30 18:25 53.81467 47.26260 7596 ft 259 kts 50°
2026-04-30 18:25 53.82670 47.28482 7425 ft 256 kts 50°
2026-04-30 18:26 53.85099 47.32939 7136 ft 263 kts 50°
2026-04-30 18:26 53.86359 47.35243 6970 ft 269 kts 49°
2026-04-30 18:26 53.87622 47.37551 6810 ft 267 kts 49°
2026-04-30 18:27 53.90096 47.42075 6473 ft 261 kts 49°
2026-04-30 18:27 53.91343 47.44358 6303 ft 260 kts 49°
2026-04-30 18:28 53.93794 47.48851 5961 ft 259 kts 49°
2026-04-30 18:28 53.95006 47.51075 5796 ft 258 kts 49°
2026-04-30 18:28 53.97431 47.55532 5433 ft 256 kts 49°
2026-04-30 18:29 53.98632 47.57744 5250 ft 255 kts 49°
2026-04-30 18:29 54.02200 47.64322 4931 ft 257 kts 49°
2026-04-30 18:30 54.04226 47.68068 4608 ft 250 kts 49°
2026-04-30 18:30 54.06824 47.72873 4434 ft 230 kts 49°
2026-04-30 18:31 54.07906 47.74881 4209 ft 229 kts 49°
2026-04-30 18:31 54.10057 47.78873 3766 ft 226 kts 49°
2026-04-30 18:32 54.12032 47.82545 3334 ft 225 kts 49°
2026-04-30 18:32 54.13077 47.84490 3115 ft 224 kts 48°
2026-04-30 18:32 54.15181 47.88432 2631 ft 224 kts 52°
2026-04-30 18:33 54.15816 47.90799 2397 ft 224 kts 82°
2026-04-30 18:33 54.14799 47.95750 2081 ft 224 kts 118°
2026-04-30 18:33 54.14008 47.98032 2084 ft 227 kts 118°
2026-04-30 18:34 54.13182 48.00352 2085 ft 230 kts 119°
2026-04-30 18:34 54.12593 48.05266 2091 ft 207 kts 65°
2026-04-30 18:34 54.13463 48.07119 2092 ft 196 kts 41°
2026-04-30 18:35 54.14471 48.08579 2070 ft 188 kts 40°
2026-04-30 18:35 54.15479 48.09910 2077 ft 178 kts 37°
2026-04-30 18:35 54.16455 48.11090 2110 ft 166 kts 36°
2026-04-30 18:36 54.18357 48.13249 2093 ft 164 kts 34°
2026-04-30 18:36 54.19315 48.14299 2042 ft 168 kts 34°
2026-04-30 18:36 54.21166 48.16291 1587 ft 145 kts 33°
2026-04-30 18:37 54.21971 48.17154 1404 ft 129 kts 33°
2026-04-30 18:37 54.22675 48.17909 1223 ft 123 kts 33°
2026-04-30 18:37 54.23412 48.18700 1073 ft 126 kts 33°
2026-04-30 18:37 54.24161 48.19505 888 ft 131 kts 33°
2026-04-30 18:38 54.24955 48.20357 722 ft 136 kts 32°
2026-04-30 18:38 54.25751 48.21189 504 ft 130 kts 32°
2026-04-30 18:38 54.26492 48.21995 436 ft 109 kts 32°
2026-04-30 18:38 54.26977 48.22518 423 ft 71 kts 32°
2026-04-30 18:39 54.27360 48.22932 409 ft 53 kts 32°
2026-04-30 18:39 54.27599 48.23193 402 ft 28 kts 46°
2026-04-30 18:39 54.27666 48.23514 397 ft 21 kts 77°
2026-04-30 18:39 54.27675 48.23583 396 ft 0 kts 77°
2026-04-30 18:42 54.27675 48.23585 396 ft 1 kts 77°
2026-04-30 18:45 54.28375 48.23663 368 ft 0 kts 302°
2026-04-30 18:45 54.28387 48.23630 367 ft 7 kts 302°
2026-04-30 18:45 54.28395 48.23608 367 ft 0 kts 302°
2026-04-30 18:46 54.28411 48.23563 366 ft 7 kts 302°
2026-04-30 18:46 54.28450 48.23459 365 ft 13 kts 301°
2026-04-30 18:46 54.28494 48.23288 363 ft 17 kts 294°
2026-04-30 18:46 54.28556 48.23111 360 ft 8 kts 303°
2026-04-30 18:47 54.28572 48.23082 360 ft 3 kts 318°
2026-04-30 18:47 54.28602 48.23026 360 ft 10 kts 307°
2026-04-30 18:47 54.28633 48.22953 359 ft 2 kts 302°
2026-04-30 18:47 54.28664 48.22939 359 ft 10 kts 15°
2026-04-30 18:48 54.28699 48.22999 359 ft 5 kts 110°
2026-04-30 18:48 54.28668 48.22999 359 ft 4 kts 208°
2026-04-30 18:48 54.28664 48.22996 359 ft 0 kts 209°